www.pogodaiklimat.ru

Погода и климат >> Архив погоды >> Индия >> Nagpur


ПОГОДА в Nagpur

  • Прогноз погоды в Nagpur
  • Монитор погоды в Nagpur
  • Климат города

АРХИВ ПОГОДЫ в Nagpur

Время (UTC), дата Ветер
(напр.,м/с)
 
Видим.   Явления Облачность Т
(С)
Тd
(С)
f
(%)
Тe
(С)
Тes
(С)
Комфортность P
(гПа)
Po
(гПа)
Тmin
(С)
Tmax
(С)
R
(мм)
R24
(мм)
S
(см)
12 18.09 С 2 4000 м мгла 6/4 600 м
[Cu Sc Ac trans]
+31.8 +22.5 58 +41 +42 опасность
перегрева
1003.9 1004.0 +35.4
15 18.09 ЮВ 1 2000 м мгла 6/3 600 м
[Cb cap Ac trans]
+27.4 +20.1 64 +34 +34 очень
душно
1007.2 1007.0
18 18.09 штиль 0 2000 м мгла 6/3 600 м
[Sc Ac trans]
+24.8 +22.4 87 +32 +32 очень
душно
1007.5 1008.0
21 18.09 З 1 2000 м мгла 6/3 600 м
[Sc Ac trans]
+23.8 +22.3 91 +31 +31 очень
душно
1006.6 1007.0
00 19.09 штиль 0 2000 м мгла 6/3 600 м
[Sc Ac trans]
+22.6 +21.4 93 +30 +30 очень
душно
1007.1 1007.0
03 19.09 С 2 4000 м мгла 5/0
[Ac trans]
+26.6 +22.5 78 +35 +39 очень
душно
1008.5 1009.0 +22.3
06 19.09 С 3 4000 м мгла 6/1 600 м
[Sc Ac trans]
+32.0 +23.7 62 +43 +54 опасность
перегрева
1006.7 1007.0
09 19.09 С 3 4000 м мгла 8/4 600 м
[Cu Sc Ac trans]
+33.6 +20.8 47 +41 +45 опасность
перегрева
1003.5 1004.0
12 19.09 СВ 1 4000 м мгла 8/0
[Ac trans]
+31.0 +22.2 60 +40 +41 очень
душно
1003.3 1003.0 +35.0
15 19.09 штиль 0 4000 м мгла 4/0
[Ac trans]
+25.4 +22.4 83 +33 +33 очень
душно
1005.7 1006.0
18 19.09 штиль 0 2000 м мгла 4/0
[Ac trans]
+24.0 +22.5 91 +31 +31 очень
душно
1006.1 1006.0
21 19.09 С 2 2000 м мгла 6/3 600 м
[Sc Ac trans]
+23.6 +21.5 88 +30 +30 очень
душно
1004.5 1005.0
00 20.09 С 2 2000 м мгла 5/3 600 м
[Sc Ac trans]
+24.2 +21.2 83 +31 +31 очень
душно
1004.4 1004.0
03 20.09 СЗ 3 4000 м мгла 6/1 600 м
[Sc Ac trans Ci fib]
+27.0 +22.6 77 +36 +39 очень
душно
1006.0 1006.0 +23.2
06 20.09 С 1 4000 м 6/3 600 м
[Sc Ac trans Ci fib]
+32.8 +22.3 54 +42 +54 опасность
перегрева
1004.7 1005.0
09 20.09 С 3 4000 м 6/4 600 м
[Cu Sc Ac trans]
+34.2 +20.1 44 +41 +46 опасность
перегрева
1000.8 1001.0
12 20.09 С 2 4000 м мгла 6/3 600 м
[Sc Ac trans]
+30.8 +20.6 55 +38 +38 очень
душно
1000.8 1001.0 +34.5
15 20.09 С 3 4000 м мгла 8/4 600 м
[Sc Ac trans]
+28.2 +20.3 62 +35 +35 очень
душно
1002.8 1003.0
18 20.09 С 2 4000 м слабый дождь 9/5 600 м
[Sc Ac trans]
+27.2 +21.2 70 +34 +34 очень
душно
1003.1 1003.0 0.0
21 20.09 С 3 2000 м слабый дождь 9/4 600 м
[Cb cap As op]
+27.0 +21.3 71 +34 +34 очень
душно
1001.2 1001.0 0.0
00 21.09 СЗ 2 2000 м мгла {дождь} 9/4 600 м
[Sc As op]
+26.6 +21.8 75 +34 +34 очень
душно
1000.3 1000.0 0.0
03 21.09 С 3 2000 м слабый дождь 10/5 600 м
[Sc As op]
+26.0 +23.1 84 +35 +35 очень
душно
1002.3 1002.0 +25.1 0.0
06 21.09 С 3 2000 м слабый дождь 10/6 450 м
[Cb cap As op]
+26.0 +24.3 90 +36 +37 очень
душно
1001.5 1002.0 0.3
09 21.09 СЗ 3 2000 м гроза, ливневой дождь 10/6 300 м
[Cb calv As op]
+24.4 +24.1 98 +34 +34 очень
душно
998.9 999.0 13
12 21.09 СЗ 5 2000 м слабый дождь {гроза} 10/6 210 м
[Cb cap As op]
+24.2 +24.2 100 +33 +33 очень
душно
997.0 997.0 +27.5 39
15 21.09 СВ 4 2000 м слабая морось {дождь} 10/8 300 м
[Cb calv As op]
+24.8 +23.9 95 +34 +34 очень
душно
998.8 999.0 39
18 21.09 В 5 2000 м слабый дождь {морось} 10/8 300 м
[Cb calv As op]
+24.0 +23.7 98 +33 +33 очень
душно
997.9 998.0 41
21 21.09 Ю 6 2000 м слабый дождь 10/6 300 м
[Frnb As op]
+23.8 +23.8 100 +32 +32 очень
душно
998.1 998.0 44
00 22.09 Ю 4 2000 м слабый дождь 10/6 300 м
[Frnb As op]
+23.4 +23.4 100 +33 +33 очень
душно
1001.6 1002.0 47
03 22.09 Ю 3 2000 м слабый дождь 10/6 240 м
[Frnb As op]
+23.4 +23.4 100 +33 +34 очень
душно
1006.0 1006.0 +23.1 49
06 22.09 ЮВ 3 2000 м слабый дождь 10/6 240 м
[Frnb As op]
+26.0 +24.6 92 +37 +38 очень
душно
1006.5 1007.0 0.3
09 22.09 Ю 5 2000 м мгла {дождь} 9/6 300 м
[Cb cap As op]
+28.0 +25.2 85 +41 +42 опасность
перегрева
1005.1 1005.0 0.8
12 22.09 ЮВ 2 2000 м мгла {дождь} 8/5 300 м
[Cb cap Ac trans]
+27.6 +24.1 81 +38 +39 очень
душно
1005.4 1005.0 +29.1 0.8
15 22.09 ЮВ 2 2000 м мгла 9/6 300 м
[Cb cap As op]
+25.8 +24.4 92 +36 +36 очень
душно
1008.9 1009.0 0.8
18 22.09 штиль 0 2000 м мгла 8/5 450 м
[Sc Ac trans]
+24.4 +22.9 91 +32 +32 очень
душно
1010.3 1010.0 0.8
21 22.09 штиль 0 2000 м мгла 8/4 600 м
[Sc Ac trans]
+24.2 +22.7 91 +32 +32 очень
душно
1009.4 1009.0 0.8
00 23.09 штиль 0 2000 м мгла 9/4 600 м
[Sc Ac trans]
+24.0 +23.1 95 +32 +32 очень
душно
1010.9 1011.0 0.8
03 23.09 Ю 4 2000 м мгла 4/3 450 м
[Sc Ac trans]
+27.4 +24.2 83 +38 +41 очень
душно
1012.4 1012.0 +23.0 0.8
06 23.09 Ю 4 2000 м мгла 6/6 300 м
[Frnb]
+29.4 +24.5 75 +42 +46 опасность
перегрева
1012.1 1012.0
09 23.09 ЮВ 3 4000 м мгла 6/5 600 м
[Cu Sc Ci sp]
+31.0 +24.4 68 +43 +48 опасность
перегрева
1009.7 1010.0
12 23.09 ЮВ 2 4000 м мгла 3/3 600 м
[Cb calv]
+29.2 +24.0 74 +41 +41 опасность
перегрева
1009.1 1009.0 +31.7
15 23.09 штиль 0 2000 м мгла 3/3 600 м
[Sc]
+26.0 +24.6 92 +37 +37 очень
душно
1011.9 1012.0
18 23.09 штиль 0 2000 м мгла 3/3 600 м
[Sc]
+24.8 +23.6 93 +34 +34 очень
душно
1011.7 1012.0
21 23.09 штиль 0 2000 м дымка 1/0
[Ac trans]
+24.0 +23.4 96 +32 +32 очень
душно
1010.9 1011.0
00 24.09 штиль 0 2000 м дымка 1/0
[Ac trans]
+23.2 +22.3 95 +32 +32 очень
душно
1011.5 1012.0
03 24.09 В 2 2000 м дымка 5/0
[Ac trans]
+27.6 +24.4 83 +39 +43 очень
душно
1012.6 1013.0 +22.6
06 24.09 ЮЗ 3 4000 м мгла 5/5 600 м
[Cu Sc]
+31.4 +24.3 66 +44 +51 опасность
перегрева
1011.8 1012.0
09 24.09 Ю 2 4000 м мгла 6/6 600 м
[Cu Sc]
+32.6 +24.3 62 +45 +50 опасность
перегрева
1008.8 1009.0
12 24.09 Ю 2 4000 м мгла 3/3 750 м
[Cb cap]
+30.2 +25.1 74 +44 +44 опасность
перегрева
1008.3 1008.0 +33.5
15 24.09 С 3 2000 м гроза без осадков 6/5 600 м
[Cb cap Ac trans]
+26.4 +23.4 84 +36 +36 очень
душно
1011.2 1011.0
18 24.09 штиль 0 2000 м мгла {гроза} 8/5 600 м
[Sc Ac trans]
+25.4 +23.9 91 +35 +35 очень
душно
1011.3 1011.0
21 24.09 СЗ 2 2000 м мгла 8/4 600 м
[Sc Ac trans]
+24.4 +23.2 93 +33 +33 очень
душно
1010.2 1010.0
00 25.09 штиль 0 2000 м мгла 5/3 600 м
[Sc Ac trans]
+23.6 +22.7 95 +31 +31 очень
душно
1010.6 1011.0
03 25.09 штиль 0 2000 м мгла ясно +28.2 +23.9 78 +39 +47 очень
душно
1012.1 1012.0 +23.2
06 25.09 З 2 4000 м 6/5 600 м
[Cu Sc Ac trans]
+32.2 +24.5 64 +45 +53 опасность
перегрева
1010.8 1011.0
09 25.09 4000 м н/о +32.8 +24.9 63 1007.8 1008.0

 

Местоположение метеостанции Nagpur (Maharashtra, Индия): широта 21.10 долгота 79.05 высота над уровнем моря 310 м.

В архиве по умолчанию представлена погода в Nagpur за последнюю неделю. Архивные данные за месяц целиком и за предыдущие месяцы, начиная с января 2011 года, Вы можете получить, выбрав интересующий диапазон дат из раскрывающегося списка и нажав кнопку "Ввод!".


*Определитесь, кто Вы:
робот инопланетянин человек

Внимание! Время в таблицах - всемирное. Для получения местного времени необходимо прибавить поправку, которая в Nagpur равна 5.5 ч.

Смотрите также архив погоды в соседних городах и на ближайших метеорологических станциях:

Погода в Wardha (Maharashtra, Индия) (68 км)
Погода в Bramhapuri (Maharashtra, Индия) (100 км)
Погода в Chhindwara (Madhya Pradesh, Индия) (111 км)
Погода в Seoni (Madhya Pradesh, Индия) (121 км)
Погода в Yeotmal (Maharashtra, Индия) (122 км)
Погода в Gondia (Maharashtra, Индия) (126 км)
Погода в Chandrapur (Maharashtra, Индия) (128 км)
Погода в Amravati (Maharashtra, Индия) (133 км)
Погода в Betul (Madhya Pradesh, Индия) (144 км)
Погода в Pachmarhi (Madhya Pradesh, Индия) (165 км)

Пояснения к столбцам:

Ветер - указаны скорость ветра в м/с - средняя за 10 мин, порывы в срок и между сроками (в фигурных скобках) и направление, откуда дует ветер: С - северный, СВ - северо-восточный, В - восточный, ЮВ - юго-восточный, Ю - южный, ЮЗ - юго-западный, З - западный, СЗ - северо-западный.
Видимость - горизонтальная дальность видимости в метрах или километрах. При видимости от 1 до 10 км при отсутствии осадков обычно наблюдается дымка, при ухудшении видимости до 1 км и менее - туман. В сухую погоду видимость может ухудшаться дымом, пылью или мглою.
Явления - указаны атмосферные явления, наблюдавшиеся в срок или в последний час перед сроком; фигурными скобками обозначены явления, наблюдавшиеся между сроками (за 1-3 часа до срока); квадратными скобками обозначены град или гололедные отложения с указанием их диаметра в мм.
Облачность - указаны через наклонную черту общая и нижняя облачность в баллах и высота нижней границы облаков в метрах; квадратными скобками обозначены формы облаков: Ci - перистые, Cs - перисто-слоистые, Cc - перисто-кучевые, Ac - высококучевые, As - высокослоистые, Sc - слоисто-кучевые, Ns - слоисто-дождевые, Cu - кучевые, Cb - кучево-дождевые. Подробнее классификацию облаков см. в Атласе облаков (PDF).
T - Температура воздуха - температура, измеренная на высоте 2 м над землей.
Td - Температура точки росы - температура, при понижении до которой содержащийся в воздухе водяной пар достигнет насыщения.
f - Относительная влажность воздуха - влажноcть воздуха, измеренная на высоте 2 м над землей.
Te - Эффективная температура - температура, которую ощущает одетый по сезону человек в тени. Характеристика душности погоды. При расчете учитывается влияние влажности воздуха и скорости ветра на теплоощущения человека.
Tes - Эффективная температура на солнце - температура, которую ощущает человек, с поправкой на солнечный нагрев. Характеристика знойности погоды. Зависит от высоты солнца над горизонтом, облачности и скорости ветра. Ночью, в пасмурную погоду, а также при ветре 12 м/с и более поправка равна нулю.
P - Атмосферное давление - приведенное к уровню моря атмосферное давление.
Po - Атмосферное давление - измеренное на уровне метеостанции атмосферное давление.
Tmin - Минимальная температура - минимум температуры воздуха на высоте 2 м над землей.
Tmax - Максимальная температура - максимум температуры воздуха на высоте 2 м над землей.
R - Количество осадков - Количество выпавших осадков за период времени, мм. При наведении курсора мыши на число - период времени, за который выпало указанное количество осадков.
R24 - Количество осадков - Количество выпавших осадков за 24 часа, мм.
S - Снежный покров - Высота снежного покрова, см. При наведении курсора мыши на число - состояние снежного покрова и степень покрытия местности в баллах.